Location: Laura�t
(43.9341°N, 0.2497°E)
Time: 09:52:56
(UTC+00:00)

Cosmos 2322 Rocket - Pass Details

Date: 03 March 2021
Orbit: 832 x 852 km, 71.0° (Epoch: 18 April)

Event Time Altitude Azimuth Distance (km) Brightness Sun altitude
Rises 19:05:15 0° 215° (SW) 3,363 5.8 -14.3°
Reaches altitude 10° 19:07:43 10° 219° (SW) 2,433 5.1 -14.7°
Maximum altitude 19:13:13 59° 299° (WNW) 963 2.8 -15.7°
Drops below altitude 10° 19:18:46 10° 18° (NNE) 2,454 4.5 -16.7°
Sets 19:21:16 0° 23° (NNE) 3,394 5.2 -17.2°
